EA3RCF Weather Reports


time (UTC)temp
F
wind
direction
speed
knots
gust
knots
rain 1hr
in
rain 24hr
in
rain mn
in
humidity
%
barometer
mb
20260504190830 57 280 0.0 1.7 0.00 0.94 0.19 94 1011.2
20260504190339 57 280 0.9 1.7 0.00 0.94 0.19 94 1011.1
20260504185818 58 307 0.0 0.9 0.00 0.94 0.19 94 1011.0
20260504185319 58 327 0.0 0.9 0.00 0.94 0.19 94 1010.9
20260504184828 58 328 0.0 2.6 0.00 0.94 0.19 94 1010.8
20260504184330 58 328 0.0 2.6 0.00 0.94 0.19 94 1010.8
20260504183839 58 328 0.0 1.7 0.00 0.94 0.19 94 1010.7
20260504183321 58 333 0.9 2.6 0.00 0.94 0.19 94 1010.7
20260504182822 58 293 1.7 2.6 0.00 0.94 0.19 94 1010.8
20260504182330 59 26 0.0 1.7 0.00 0.94 0.19 94 1010.8
20260504181832 59 26 0.9 1.7 0.00 0.94 0.19 94 1010.7
20260504181315 59 347 0.9 1.7 0.00 0.94 0.19 94 1010.7
20260504180823 59 17 0.9 0.9 0.00 0.94 0.19 94 1010.7
20260504180325 59 75 0.0 0.9 0.00 0.94 0.19 94 1010.8
20260504175827 59 75 0.9 1.7 0.00 1.02 0.19 94 1010.8
20260504175316 59 75 0.0 0.9 0.00 1.02 0.19 94 1010.7
20260504174816 59 74 0.9 0.9 0.00 1.02 0.19 94 1010.7
20260504174316 60 20 0.0 0.0 0.00 1.02 0.19 94 1010.8
20260504173825 60 21 0.0 0.0 0.00 1.02 0.19 94 1010.8
20260504173327 60 21 0.0 0.0 0.00 1.02 0.19 94 1010.8
20260504172818 60 21 0.0 0.9 0.00 1.02 0.19 94 1010.7
20260504172319 60 20 0.9 0.9 0.00 1.02 0.19 94 1010.8
20260504171829 60 20 0.0 0.9 0.00 1.02 0.19 94 1010.9
20260504171330 59 20 0.0 0.9 0.00 1.02 0.19 94 1010.9
20260504170839 59 20 0.0 0.9 0.00 1.02 0.19 94 1010.9
20260504170321 59 20 0.0 0.9 0.00 1.02 0.19 94 1011.0
20260504160324 58 59 0.9 0.9 0.28 1.14 0.19 94 1011.3
20260504150825 57 280 0.0 3.5 0.16 0.91 0.14 94 1011.7
20260504150326 58 276 0.9 3.5 0.12 0.87 0.13 94 1011.7
20260504141317 58 128 0.0 2.6 0.55 0.75 0.11 94 1011.3
20260504140826 58 128 1.7 2.6 0.55 0.75 0.11 94 1011.2
20260504140335 58 136 0.9 3.5 0.55 0.75 0.11 94 1011.4
20260504130820 66 319 1.7 7.8 0.00 0.20 0.00 76 1011.2
20260504130319 66 101 3.5 9.6 0.00 0.20 0.00 76 1011.0
20260504110320 69 210 0.9 1.7 0.00 0.20 0.00 62 1012.3
20260504100320 69 153 0.9 2.6 0.00 0.20 0.00 62 1012.6
20260504081837 62 79 0.9 1.7 0.00 0.20 0.00 87 1012.4
20260504081319 61 83 0.9 1.7 0.00 0.20 0.00 93 1012.5
20260504080821 61 67 0.9 0.9 0.00 0.20 0.00 95 1012.5
20260504080330 61 210 0.0 0.9 0.00 0.20 0.00 95 1012.5
20260504070330 61 207 0.0 2.6 0.00 0.20 0.00 95 1012.9
20260504050332 53 253 0.0 0.9 0.00 0.20 0.00 94 1013.0
20260504045832 53 255 0.0 0.9 0.00 0.20 0.00 94 1013.1
20260504045314 53 255 0.0 0.9 0.00 0.20 0.00 94 1013.1
20260504044823 53 252 0.9 1.7 0.00 0.20 0.00 94 1013.2
20260504044332 52 245 0.9 2.6 0.00 0.20 0.00 94 1013.1
20260504043830 52 242 0.9 2.6 0.00 0.20 0.00 94 1013.1
20260504043319 52 250 0.9 1.7 0.00 0.20 0.00 94 1013.1
20260504042821 52 245 0.9 2.6 0.00 0.20 0.00 94 1013.3
20260504042329 52 248 1.7 2.6 0.00 0.20 0.00 94 1013.2
20260504041829 52 249 0.9 1.7 0.00 0.20 0.00 94 1013.3
20260504041315 52 260 0.9 1.7 0.00 0.20 0.00 94 1013.3
20260504040820 52 270 0.9 1.7 0.00 0.20 0.00 94 1013.3
20260504040322 53 266 0.9 1.7 0.00 0.20 0.00 94 1013.3
20260504035831 52 235 0.0 0.9 0.00 0.20 0.00 94 1013.3
20260504035333 52 235 0.0 1.7 0.00 0.20 0.00 94 1013.2
20260504034814 52 276 0.9 1.7 0.00 0.20 0.00 94 1013.3
20260504034323 52 211 0.0 1.7 0.00 0.20 0.00 94 1013.3
20260504033823 52 239 0.0 1.7 0.00 0.20 0.00 94 1013.4
20260504033332 53 239 0.9 1.7 0.00 0.20 0.00 94 1013.5
20260504032814 53 255 0.9 1.7 0.00 0.20 0.00 94 1013.5
20260504032316 53 267 0.9 0.9 0.00 0.20 0.00 94 1013.5
20260504031824 53 162 0.9 0.9 0.00 0.20 0.00 94 1013.4
20260504031326 53 162 0.0 0.9 0.00 0.20 0.00 94 1013.2
20260504030836 53 162 0.0 0.9 0.00 0.20 0.00 94 1013.3
20260504030317 53 162 0.0 0.9 0.00 0.20 0.00 94 1013.4
20260504025833 53 229 0.0 1.7 0.00 0.20 0.00 94 1013.4
20260504025314 53 229 0.9 2.6 0.00 0.20 0.00 94 1013.5
20260504024827 52 236 1.7 2.6 0.00 0.20 0.00 94 1013.5
20260504024329 53 246 0.9 2.6 0.00 0.20 0.00 94 1013.4
20260504023838 53 242 0.9 1.7 0.00 0.20 0.00 94 1013.3
20260504023320 53 200 0.9 0.9 0.00 0.20 0.00 94 1013.3
20260504022821 53 177 0.0 1.7 0.00 0.20 0.00 94 1013.5
20260504022331 54 128 0.0 2.6 0.00 0.20 0.00 94 1013.4
20260504021833 54 120 1.7 2.6 0.00 0.20 0.00 94 1013.4
20260504021340 54 113 1.7 1.7 0.00 0.20 0.00 94 1013.4
20260504020818 54 145 0.9 0.9 0.00 0.20 0.00 94 1013.4
20260504020325 53 145 0.0 0.0 0.00 0.20 0.00 94 1013.4
20260504015825 53 146 0.0 0.9 0.00 0.20 0.00 94 1013.5
20260504015314 53 146 0.0 0.9 0.00 0.20 0.00 94 1013.7
20260504014815 53 145 0.0 0.9 0.00 0.20 0.00 94 1013.7
20260504014324 53 146 0.0 0.9 0.00 0.20 0.00 94 1013.8
20260504013825 54 146 0.0 0.9 0.00 0.20 0.00 94 1013.7
20260504013327 53 145 0.0 0.9 0.00 0.20 0.00 94 1013.8
20260504012815 53 145 0.0 0.9 0.00 0.20 0.00 94 1013.8
20260504012318 53 145 0.0 0.9 0.00 0.20 0.00 94 1013.9
20260504011819 54 145 0.0 0.9 0.00 0.20 0.00 94 1013.9
20260504011328 54 146 0.9 1.7 0.00 0.20 0.00 94 1013.9
20260504010831 54 229 0.9 1.7 0.00 0.20 0.00 94 1014.0
20260504010319 54 271 0.9 1.7 0.00 0.20 0.00 94 1014.1
20260504005817 54 219 0.9 2.6 0.00 0.20 0.00 94 1014.2
20260504005319 54 226 0.0 1.7 0.00 0.20 0.00 94 1014.2
20260504004829 54 226 0.9 1.7 0.00 0.20 0.00 94 1014.2
20260504004330 54 220 0.9 1.7 0.00 0.20 0.00 94 1014.2
20260504003900 54 263 0.9 2.6 0.00 0.20 0.00 94 1014.2
20260504003324 54 264 0.9 2.6 0.00 0.20 0.00 94 1014.1
20260504002827 54 245 0.9 4.3 0.00 0.20 0.00 94 1014.1
20260504002336 54 226 0.9 3.5 0.00 0.20 0.00 94 1014.2
20260504001816 54 245 0.9 4.3 0.00 0.20 0.00 94 1014.3
20260504001318 54 257 1.7 4.3 0.00 0.20 0.00 94 1014.3
20260504000824 54 245 0.9 4.3 0.00 0.20 0.00 94 1014.4
20260504000327 54 260 0.9 2.6 0.00 0.20 0.00 94 1014.4
20260503235836 54 225 1.7 3.5 0.00 0.20 0.00 94 1014.4
20260503235318 54 203 1.7 3.5 0.00 0.20 0.00 94 1014.5
20260503234827 54 181 0.9 2.6 0.00 0.20 0.00 94 1014.5
20260503234335 54 228 1.7 2.6 0.00 0.20 0.00 94 1014.5
20260503233818 54 207 0.9 4.3 0.00 0.20 0.00 94 1014.6
20260503233328 54 236 0.9 4.3 0.00 0.20 0.00 94 1014.8
20260503232833 54 301 1.7 3.5 0.00 0.20 0.00 94 1014.8
20260503232315 54 218 1.7 3.5 0.00 0.20 0.00 94 1014.8
20260503231817 54 215 0.9 1.7 0.00 0.20 0.00 94 1014.9
20260503231326 54 200 0.0 1.7 0.00 0.20 0.00 94 1015.0
20260503230828 54 222 0.9 0.9 0.00 0.20 0.00 94 1015.1
20260503230337 54 222 0.0 0.0 0.00 0.20 0.00 94 1015.1
20260503225819 54 221 0.0 0.9 0.00 0.20 0.00 94 1015.2
20260503225321 54 222 0.0 0.9 0.00 0.20 0.00 94 1015.3
20260503224911 54 222 0.0 0.9 0.00 0.20 0.00 94 1015.3
20260503224335 54 221 0.0 0.9 0.00 0.20 0.00 94 1015.3
20260503223815 54 222 0.0 0.9 0.00 0.20 0.00 94 1015.4
20260503223317 54 222 0.0 0.9 0.00 0.20 0.00 94 1015.4
20260503222825 54 222 0.0 0.9 0.00 0.20 0.00 94 1015.5
20260503222327 54 222 0.0 0.9 0.00 0.20 0.00 94 1015.5
20260503221835 54 221 0.0 1.7 0.00 0.20 0.00 94 1015.6
20260503221317 54 208 0.0 0.9 0.00 0.20 0.00 94 1015.7
20260503220817 54 208 0.0 0.9 0.00 0.20 0.00 94 1015.7
20260503220326 54 208 0.0 0.9 0.00 0.20 0.00 94 1015.6
20260503215828 54 208 0.0 1.7 0.00 0.20 0.04 94 1015.6
20260503215336 54 208 0.9 1.7 0.00 0.20 0.04 94 1015.6
20260503214834 54 256 0.0 0.9 0.00 0.20 0.04 94 1015.6
20260503214315 54 260 0.0 1.7 0.00 0.20 0.04 94 1015.6
20260503213822 54 236 0.0 0.9 0.00 0.20 0.04 94 1015.6
20260503213331 54 236 0.0 0.9 0.00 0.20 0.04 94 1015.4
20260503212840 54 238 0.0 0.0 0.00 0.20 0.04 94 1015.5
20260503212321 54 236 0.0 0.9 0.00 0.20 0.04 94 1015.6
20260503211822 54 236 0.9 0.9 0.00 0.20 0.04 94 1015.6
20260503211332 54 236 0.0 0.9 0.00 0.20 0.04 94 1015.7
20260503210831 54 236 0.0 0.9 0.00 0.20 0.04 94 1015.8
20260503210342 54 236 0.0 0.9 0.00 0.20 0.04 94 1015.9
20260503205329 54 236 0.0 0.9 0.00 0.20 0.04 94 1015.7
20260503204830 54 236 0.0 0.9 0.00 0.20 0.04 94 1015.8
20260503204322 54 238 0.0 0.9 0.00 0.20 0.04 94 1015.8
20260503203820 54 238 0.0 0.9 0.00 0.20 0.04 94 1015.7
20260503203328 54 236 0.0 0.9 0.00 0.20 0.04 94 1015.7
20260503202828 54 236 0.0 0.9 0.00 0.20 0.04 94 1015.6
20260503202329 54 236 0.0 0.9 0.00 0.20 0.04 94 1015.6
20260503201818 54 236 0.9 0.9 0.00 0.20 0.04 94 1015.6
20260503201319 54 212 0.0 0.9 0.00 0.20 0.04 94 1015.6
20260503200819 54 212 0.0 0.9 0.00 0.20 0.04 94 1015.5
20260503200328 54 212 0.0 0.9 0.00 0.20 0.04 94 1015.4
20260503195829 54 212 0.0 0.9 0.00 0.20 0.04 94 1015.4
20260503195319 54 224 0.0 0.9 0.00 0.20 0.04 94 1015.4
20260503194816 54 236 0.0 1.7 0.00 0.20 0.04 94 1015.4
20260503194317 54 226 0.0 2.6 0.00 0.20 0.04 94 1015.3
20260503193824 54 203 0.9 2.6 0.00 0.20 0.04 94 1015.2
20260503193325 54 251 0.9 2.6 0.00 0.20 0.04 94 1015.1
20260503192833 54 245 0.0 1.7 0.00 0.20 0.04 94 1015.1
20260503192316 54 269 0.9 1.7 0.00 0.20 0.04 94 1015.0
20260503191817 54 238 0.9 1.7 0.00 0.20 0.04 94 1014.9
20260503191325 54 225 0.9 0.9 0.00 0.20 0.04 94 1014.8